Погода в Каменке

Россия / Пензенская область     53°11′07″N   44°02′48″E
темп.,
°C
ветер,
м/с
пор.,
м/с
влажн.,
%
обл.,
%
осадки,
мм/ч
давл.,
гПа
погр.,
м
9 марта, вт
вт900:00−14з33920 0.0 100822
03:00−16з22940 0.0 101020
06:00−16з229613 0.0 101120
09:00−12ссз239457 0.1 1011191
12:00−10ссз349099 0.0 1012388
15:00−10сз469099 0.1 1012478
18:00−13сз349593 0.0 101446
21:00−13сз5109596 0.1 1015314
10 марта, ср
ср1000:00−15сз489696 0.1 1016209
03:00−18сз479895 0.1 1018128
06:00−19сз489898 0.1 1020222
09:00−19сз589698 0.1 1021315
12:00−17сз5891100 0.0 1022530
15:00−16сз5889100 0.1 1023714
18:00−19сз4796100 0.1 1024140
21:00−21ссз3799100 0.1 1027183
11 марта, чт
чт1100:00−25ссз349970 0.0 102839
03:00−26ссз339938 0.0 103027
06:00−27сз33990 0.0 103031
09:00−22сз47950 0.0 1031211
12:00−17сз58890 0.0 1031414
15:00−14сз589041 0.0 1030430
18:00−17зсз479486 0.0 1030130
21:00−18сз499788 0.0 1031156
12 марта, пт
пт1200:00−19ссз3410078 0.0 103249
03:00−20ссз2310054 0.0 103320
06:00−21ссз22980 0.0 103420
09:00−17ссз11880 0.0 103471
12:00−12ю11770 0.0 1034217
15:00−10ю22780 0.0 1034283
18:00−15ю33890 0.0 103420
21:00−16ю34940 0.0 103540
13 марта, сб
сб1300:00−18ю47950 0.0 103589
03:00−19ю48960 0.0 1034135
06:00−20ю49987 0.0 1034139
09:00−15ю6119252 0.0 1033287
12:00−10ю71383100 0.0 1032561
15:00−8ю81381100 0.0 1030686
18:00−10ю71487100 0.0 1028594
21:00−10ю71685100 0.0 1028544